Time,TemperatureF,DewpointF,PressureIn,WindDirection,WindDirectionDegrees,WindSpeedMPH,WindSpeedGustMPH,Humidity,HourlyPrecipIn,Conditions,Clouds,dailyrainin,SoftwareType,DateUTC
2013-05-19 00:01:00,51.6,47.9,30.25,North,-999,-999.0,-999.0,83,-99.99,,,-99.99,Homeseer,2013-05-19 04:01:00,
2013-05-19 00:02:00,51.6,47.9,30.25,North,-999,-999.0,-999.0,83,-99.99,,,-99.99,Homeseer,2013-05-19 04:02:00,
2013-05-19 00:03:00,51.7,48.0,30.25,North,-999,-999.0,-999.0,83,-99.99,,,-99.99,Homeseer,2013-05-19 04:03:00,
2013-05-19 00:04:00,51.6,47.9,30.25,North,-999,-999.0,-999.0,83,-99.99,,,-99.99,Homeseer,2013-05-19 04:04:00,
2013-05-19 00:05:00,51.6,47.9,30.25,North,-999,-999.0,-999.0,83,-99.99,,,-99.99,Homeseer,2013-05-19 04:05:00,
2013-05-19 00:10:00,51.5,47.8,30.25,North,-999,-999.0,-999.0,83,-99.99,,,-99.99,Homeseer,2013-05-19 04:10:00,
2013-05-19 00:15:00,51.3,47.8,30.25,North,-999,-999.0,-999.0,84,-99.99,,,-99.99,Homeseer,2013-05-19 04:15:00,
2013-05-19 00:20:00,51.2,47.5,30.25,North,-999,-999.0,-999.0,83,-99.99,,,-99.99,Homeseer,2013-05-19 04:20:00,
2013-05-19 00:25:00,50.9,47.2,30.25,North,-999,-999.0,-999.0,83,-99.99,,,-99.99,Homeseer,2013-05-19 04:25:00,
2013-05-19 00:30:00,50.7,47.0,30.25,North,-999,-999.0,-999.0,83,-99.99,,,-99.99,Homeseer,2013-05-19 04:30:00,
2013-05-19 00:35:00,50.5,47.3,30.26,North,-999,-999.0,-999.0,85,-99.99,,,-99.99,Homeseer,2013-05-19 04:35:00,
2013-05-19 00:40:00,50.3,47.1,30.27,North,-999,-999.0,-999.0,85,-99.99,,,-99.99,Homeseer,2013-05-19 04:40:00,
2013-05-19 00:45:00,50.2,47.2,30.26,North,-999,-999.0,-999.0,86,-99.99,,,-99.99,Homeseer,2013-05-19 04:45:00,
2013-05-19 00:50:00,50.0,47.0,30.27,North,-999,-999.0,-999.0,86,-99.99,,,-99.99,Homeseer,2013-05-19 04:50:00,
2013-05-19 00:55:00,49.9,46.9,30.26,North,-999,-999.0,-999.0,86,-99.99,,,-99.99,Homeseer,2013-05-19 04:55:00,
2013-05-19 01:00:00,49.8,46.8,30.26,North,-999,-999.0,-999.0,86,-99.99,,,-99.99,Homeseer,2013-05-19 05:00:00,
2013-05-19 01:05:00,49.5,46.7,30.26,North,-999,-999.0,-999.0,87,-99.99,,,-99.99,Homeseer,2013-05-19 05:05:00,
2013-05-19 01:10:00,49.4,46.6,30.25,North,-999,-999.0,-999.0,87,-99.99,,,-99.99,Homeseer,2013-05-19 05:10:00,
2013-05-19 01:15:00,49.1,46.6,30.26,North,-999,-999.0,-999.0,88,-99.99,,,-99.99,Homeseer,2013-05-19 05:15:00,
2013-05-19 01:20:00,49.1,46.1,30.26,North,-999,-999.0,-999.0,86,-99.99,,,-99.99,Homeseer,2013-05-19 05:20:00,
2013-05-19 01:25:00,48.9,46.4,30.26,North,-999,-999.0,-999.0,88,-99.99,,,-99.99,Homeseer,2013-05-19 05:25:00,
2013-05-19 01:30:00,48.9,46.4,30.26,North,-999,-999.0,-999.0,88,-99.99,,,-99.99,Homeseer,2013-05-19 05:30:00,
2013-05-19 01:35:00,48.7,46.4,30.25,North,-999,-999.0,-999.0,89,-99.99,,,-99.99,Homeseer,2013-05-19 05:35:00,
2013-05-19 01:40:00,48.6,46.3,30.26,North,-999,-999.0,-999.0,89,-99.99,,,-99.99,Homeseer,2013-05-19 05:40:00,
2013-05-19 01:45:00,48.5,46.0,30.26,North,-999,-999.0,-999.0,88,-99.99,,,-99.99,Homeseer,2013-05-19 05:45:00,
2013-05-19 01:50:00,48.2,45.9,30.27,North,-999,-999.0,-999.0,89,-99.99,,,-99.99,Homeseer,2013-05-19 05:50:00,
2013-05-19 01:55:00,48.1,46.0,30.26,North,-999,-999.0,-999.0,90,-99.99,,,-99.99,Homeseer,2013-05-19 05:55:00,
2013-05-19 02:00:00,48.0,45.7,30.27,North,-999,-999.0,-999.0,89,-99.99,,,-99.99,Homeseer,2013-05-19 06:00:00,
2013-05-19 02:05:00,48.0,45.7,30.27,North,-999,-999.0,-999.0,89,-99.99,,,-99.99,Homeseer,2013-05-19 06:05:00,
2013-05-19 02:10:00,47.8,45.5,30.27,North,-999,-999.0,-999.0,89,-99.99,,,-99.99,Homeseer,2013-05-19 06:10:00,
2013-05-19 02:15:00,47.7,45.4,30.27,North,-999,-999.0,-999.0,89,-99.99,,,-99.99,Homeseer,2013-05-19 06:15:00,
2013-05-19 02:20:00,47.6,45.5,30.27,North,-999,-999.0,-999.0,90,-99.99,,,-99.99,Homeseer,2013-05-19 06:20:00,
2013-05-19 02:25:00,47.3,45.2,30.27,North,-999,-999.0,-999.0,90,-99.99,,,-99.99,Homeseer,2013-05-19 06:25:00,
2013-05-19 02:30:00,47.2,45.1,30.27,North,-999,-999.0,-999.0,90,-99.99,,,-99.99,Homeseer,2013-05-19 06:30:00,
2013-05-19 02:35:00,47.1,45.0,30.27,North,-999,-999.0,-999.0,90,-99.99,,,-99.99,Homeseer,2013-05-19 06:35:00,
2013-05-19 02:40:00,47.0,44.9,30.27,North,-999,-999.0,-999.0,90,-99.99,,,-99.99,Homeseer,2013-05-19 06:40:00,
2013-05-19 02:45:00,46.8,44.7,30.27,North,-999,-999.0,-999.0,90,-99.99,,,-99.99,Homeseer,2013-05-19 06:45:00,
2013-05-19 02:50:00,46.7,44.9,30.27,North,-999,-999.0,-999.0,91,-99.99,,,-99.99,Homeseer,2013-05-19 06:50:00,
2013-05-19 02:55:00,46.7,44.6,30.27,North,-999,-999.0,-999.0,90,-99.99,,,-99.99,Homeseer,2013-05-19 06:55:00,
2013-05-19 03:00:00,46.6,44.8,30.26,North,-999,-999.0,-999.0,91,-99.99,,,-99.99,Homeseer,2013-05-19 07:00:00,
2013-05-19 03:05:00,46.4,44.6,30.27,North,-999,-999.0,-999.0,91,-99.99,,,-99.99,Homeseer,2013-05-19 07:05:00,
2013-05-19 03:10:00,46.4,44.8,30.27,North,-999,-999.0,-999.0,92,-99.99,,,-99.99,Homeseer,2013-05-19 07:10:00,
2013-05-19 03:16:00,46.7,45.1,30.27,North,-999,-999.0,-999.0,92,-99.99,,,-99.99,Homeseer,2013-05-19 07:16:00,
2013-05-19 03:21:00,46.8,45.6,30.27,North,-999,-999.0,-999.0,94,-99.99,,,-99.99,Homeseer,2013-05-19 07:21:00,
2013-05-19 03:26:00,47.1,45.5,30.27,North,-999,-999.0,-999.0,92,-99.99,,,-99.99,Homeseer,2013-05-19 07:26:00,
2013-05-19 03:31:00,47.3,45.9,30.27,North,-999,-999.0,-999.0,93,-99.99,,,-99.99,Homeseer,2013-05-19 07:31:00,
2013-05-19 03:36:00,47.6,46.4,30.27,North,-999,-999.0,-999.0,94,-99.99,,,-99.99,Homeseer,2013-05-19 07:36:00,
2013-05-19 03:41:00,47.9,46.5,30.27,North,-999,-999.0,-999.0,93,-99.99,,,-99.99,Homeseer,2013-05-19 07:41:00,
2013-05-19 03:46:00,48.1,46.7,30.28,North,-999,-999.0,-999.0,93,-99.99,,,-99.99,Homeseer,2013-05-19 07:46:00,
2013-05-19 03:51:00,48.1,46.9,30.28,North,-999,-999.0,-999.0,94,-99.99,,,-99.99,Homeseer,2013-05-19 07:51:00,
2013-05-19 03:56:00,48.2,46.8,30.27,North,-999,-999.0,-999.0,93,-99.99,,,-99.99,Homeseer,2013-05-19 07:56:00,
2013-05-19 04:01:00,48.0,47.2,30.27,North,-999,-999.0,-999.0,96,-99.99,,,-99.99,Homeseer,2013-05-19 08:01:00,
2013-05-19 04:06:00,48.2,47.0,30.28,North,-999,-999.0,-999.0,94,-99.99,,,-99.99,Homeseer,2013-05-19 08:06:00,
2013-05-19 04:11:00,48.2,47.0,30.28,North,-999,-999.0,-999.0,94,-99.99,,,-99.99,Homeseer,2013-05-19 08:11:00,
2013-05-19 04:16:00,48.2,47.2,30.28,North,-999,-999.0,-999.0,95,-99.99,,,-99.99,Homeseer,2013-05-19 08:16:00,
2013-05-19 04:21:00,48.2,47.2,30.28,North,-999,-999.0,-999.0,95,-99.99,,,-99.99,Homeseer,2013-05-19 08:21:00,
2013-05-19 04:26:00,48.4,47.2,30.29,North,-999,-999.0,-999.0,94,-99.99,,,-99.99,Homeseer,2013-05-19 08:26:00,
2013-05-19 04:31:00,48.5,47.5,30.29,North,-999,-999.0,-999.0,95,-99.99,,,-99.99,Homeseer,2013-05-19 08:31:00,
2013-05-19 04:36:00,48.5,47.3,30.28,North,-999,-999.0,-999.0,94,-99.99,,,-99.99,Homeseer,2013-05-19 08:36:00,
2013-05-19 04:41:00,48.5,47.5,30.29,North,-999,-999.0,-999.0,95,-99.99,,,-99.99,Homeseer,2013-05-19 08:41:00,
2013-05-19 04:46:00,48.6,47.6,30.29,North,-999,-999.0,-999.0,95,-99.99,,,-99.99,Homeseer,2013-05-19 08:46:00,
2013-05-19 04:51:00,48.6,47.6,30.29,North,-999,-999.0,-999.0,95,-99.99,,,-99.99,Homeseer,2013-05-19 08:51:00,
2013-05-19 04:56:00,48.8,47.6,30.29,North,-999,-999.0,-999.0,94,-99.99,,,-99.99,Homeseer,2013-05-19 08:56:00,
2013-05-19 05:01:00,48.8,47.8,30.29,North,-999,-999.0,-999.0,95,-99.99,,,-99.99,Homeseer,2013-05-19 09:01:00,
2013-05-19 05:06:00,48.9,47.9,30.29,North,-999,-999.0,-999.0,95,-99.99,,,-99.99,Homeseer,2013-05-19 09:06:00,
2013-05-19 05:11:00,48.9,47.9,30.29,North,-999,-999.0,-999.0,95,-99.99,,,-99.99,Homeseer,2013-05-19 09:11:00,
2013-05-19 05:16:00,48.9,48.1,30.29,North,-999,-999.0,-999.0,96,-99.99,,,-99.99,Homeseer,2013-05-19 09:16:00,
2013-05-19 05:21:00,49.0,48.0,30.30,North,-999,-999.0,-999.0,95,-99.99,,,-99.99,Homeseer,2013-05-19 09:21:00,
2013-05-19 05:26:00,49.2,48.2,30.30,North,-999,-999.0,-999.0,95,-99.99,,,-99.99,Homeseer,2013-05-19 09:26:00,
2013-05-19 05:31:00,49.4,48.2,30.30,North,-999,-999.0,-999.0,94,-99.99,,,-99.99,Homeseer,2013-05-19 09:31:00,
2013-05-19 05:36:00,49.4,48.4,30.31,North,-999,-999.0,-999.0,95,-99.99,,,-99.99,Homeseer,2013-05-19 09:36:00,
2013-05-19 05:41:00,49.5,48.5,30.31,North,-999,-999.0,-999.0,95,-99.99,,,-99.99,Homeseer,2013-05-19 09:41:00,
2013-05-19 05:46:00,49.7,48.7,30.31,North,-999,-999.0,-999.0,95,-99.99,,,-99.99,Homeseer,2013-05-19 09:46:00,
2013-05-19 05:51:00,49.7,48.7,30.31,North,-999,-999.0,-999.0,95,-99.99,,,-99.99,Homeseer,2013-05-19 09:51:00,
2013-05-19 05:56:00,49.6,49.0,30.31,North,-999,-999.0,-999.0,97,-99.99,,,-99.99,Homeseer,2013-05-19 09:56:00,
2013-05-19 06:01:00,49.8,48.8,30.32,North,-999,-999.0,-999.0,95,-99.99,,,-99.99,Homeseer,2013-05-19 10:01:00,
2013-05-19 06:06:00,49.9,49.1,30.32,North,-999,-999.0,-999.0,96,-99.99,,,-99.99,Homeseer,2013-05-19 10:06:00,
2013-05-19 06:11:00,50.2,49.2,30.32,North,-999,-999.0,-999.0,95,-99.99,,,-99.99,Homeseer,2013-05-19 10:11:00,
2013-05-19 06:16:00,50.2,49.4,30.33,North,-999,-999.0,-999.0,96,-99.99,,,-99.99,Homeseer,2013-05-19 10:16:00,
2013-05-19 06:21:00,50.3,49.3,30.33,North,-999,-999.0,-999.0,95,-99.99,,,-99.99,Homeseer,2013-05-19 10:21:00,
2013-05-19 06:26:00,50.4,49.4,30.33,North,-999,-999.0,-999.0,95,-99.99,,,-99.99,Homeseer,2013-05-19 10:26:00,
2013-05-19 06:31:00,50.5,49.3,30.33,North,-999,-999.0,-999.0,94,-99.99,,,-99.99,Homeseer,2013-05-19 10:31:00,
2013-05-19 06:36:00,50.7,49.9,30.33,North,-999,-999.0,-999.0,96,-99.99,,,-99.99,Homeseer,2013-05-19 10:36:00,
2013-05-19 06:41:00,50.8,49.8,30.33,North,-999,-999.0,-999.0,95,-99.99,,,-99.99,Homeseer,2013-05-19 10:41:00,
2013-05-19 06:46:00,50.8,49.8,30.33,North,-999,-999.0,-999.0,95,-99.99,,,-99.99,Homeseer,2013-05-19 10:46:00,
2013-05-19 06:51:00,50.9,50.1,30.34,North,-999,-999.0,-999.0,96,-99.99,,,-99.99,Homeseer,2013-05-19 10:51:00,
2013-05-19 06:56:00,51.0,50.0,30.34,North,-999,-999.0,-999.0,95,-99.99,,,-99.99,Homeseer,2013-05-19 10:56:00,
2013-05-19 07:01:00,51.2,50.2,30.34,North,-999,-999.0,-999.0,95,-99.99,,,-99.99,Homeseer,2013-05-19 11:01:00,
2013-05-19 07:06:00,51.3,50.3,30.35,North,-999,-999.0,-999.0,95,-99.99,,,-99.99,Homeseer,2013-05-19 11:06:00,
2013-05-19 07:11:00,51.3,50.1,30.35,North,-999,-999.0,-999.0,94,-99.99,,,-99.99,Homeseer,2013-05-19 11:11:00,
2013-05-19 07:16:00,51.4,50.2,30.35,North,-999,-999.0,-999.0,94,-99.99,,,-99.99,Homeseer,2013-05-19 11:16:00,
2013-05-19 07:21:00,51.6,50.4,30.35,North,-999,-999.0,-999.0,94,-99.99,,,-99.99,Homeseer,2013-05-19 11:21:00,
2013-05-19 07:26:00,51.6,50.4,30.35,North,-999,-999.0,-999.0,94,-99.99,,,-99.99,Homeseer,2013-05-19 11:26:00,
2013-05-19 07:31:00,51.8,50.3,30.35,North,-999,-999.0,-999.0,93,-99.99,,,-99.99,Homeseer,2013-05-19 11:31:00,
2013-05-19 07:36:00,52.2,50.9,30.35,North,-999,-999.0,-999.0,94,-99.99,,,-99.99,Homeseer,2013-05-19 11:36:00,
2013-05-19 07:41:00,52.1,50.6,30.35,North,-999,-999.0,-999.0,93,-99.99,,,-99.99,Homeseer,2013-05-19 11:41:00,
2013-05-19 07:46:00,52.3,50.8,30.34,North,-999,-999.0,-999.0,93,-99.99,,,-99.99,Homeseer,2013-05-19 11:46:00,
2013-05-19 07:52:00,52.4,50.9,30.34,North,-999,-999.0,-999.0,93,-99.99,,,-99.99,Homeseer,2013-05-19 11:52:00,
2013-05-19 07:57:00,52.5,50.8,30.35,North,-999,-999.0,-999.0,92,-99.99,,,-99.99,Homeseer,2013-05-19 11:57:00,
2013-05-19 08:02:00,52.8,50.9,30.35,North,-999,-999.0,-999.0,91,-99.99,,,-99.99,Homeseer,2013-05-19 12:02:00,
2013-05-19 08:07:00,53.1,51.2,30.34,North,-999,-999.0,-999.0,91,-99.99,,,-99.99,Homeseer,2013-05-19 12:07:00,
2013-05-19 08:12:00,53.3,51.6,30.35,North,-999,-999.0,-999.0,92,-99.99,,,-99.99,Homeseer,2013-05-19 12:12:00,
2013-05-19 08:17:00,55.4,53.2,30.34,North,-999,-999.0,-999.0,90,-99.99,,,-99.99,Homeseer,2013-05-19 12:17:00,
2013-05-19 08:22:00,56.8,53.4,30.35,North,-999,-999.0,-999.0,85,-99.99,,,-99.99,Homeseer,2013-05-19 12:22:00,
2013-05-19 08:27:00,58.1,54.5,30.35,North,-999,-999.0,-999.0,84,-99.99,,,-99.99,Homeseer,2013-05-19 12:27:00,
2013-05-19 08:32:00,58.1,54.0,30.35,North,-999,-999.0,-999.0,82,-99.99,,,-99.99,Homeseer,2013-05-19 12:32:00,
2013-05-19 08:37:00,58.0,53.3,30.35,North,-999,-999.0,-999.0,80,-99.99,,,-99.99,Homeseer,2013-05-19 12:37:00,
2013-05-19 08:42:00,57.0,52.4,30.35,North,-999,-999.0,-999.0,80,-99.99,,,-99.99,Homeseer,2013-05-19 12:42:00,
2013-05-19 08:47:00,57.7,53.3,30.35,North,-999,-999.0,-999.0,81,-99.99,,,-99.99,Homeseer,2013-05-19 12:47:00,
2013-05-19 08:52:00,58.5,52.8,30.35,North,-999,-999.0,-999.0,76,-99.99,,,-99.99,Homeseer,2013-05-19 12:52:00,
2013-05-19 08:57:00,59.5,53.7,30.35,North,-999,-999.0,-999.0,76,-99.99,,,-99.99,Homeseer,2013-05-19 12:57:00,
2013-05-19 09:02:00,60.4,54.6,30.35,North,-999,-999.0,-999.0,76,-99.99,,,-99.99,Homeseer,2013-05-19 13:02:00,
2013-05-19 09:07:00,61.5,54.5,30.35,North,-999,-999.0,-999.0,72,-99.99,,,-99.99,Homeseer,2013-05-19 13:07:00,
2013-05-19 09:12:00,62.1,55.4,30.35,North,-999,-999.0,-999.0,73,-99.99,,,-99.99,Homeseer,2013-05-19 13:12:00,
2013-05-19 09:17:00,62.3,54.7,30.35,North,-999,-999.0,-999.0,70,-99.99,,,-99.99,Homeseer,2013-05-19 13:17:00,
2013-05-19 09:22:00,63.1,56.1,30.35,North,-999,-999.0,-999.0,72,-99.99,,,-99.99,Homeseer,2013-05-19 13:22:00,
2013-05-19 09:27:00,63.1,54.9,30.35,North,-999,-999.0,-999.0,68,-99.99,,,-99.99,Homeseer,2013-05-19 13:27:00,
2013-05-19 09:32:00,63.3,55.1,30.35,North,-999,-999.0,-999.0,68,-99.99,,,-99.99,Homeseer,2013-05-19 13:32:00,
2013-05-19 09:37:00,64.0,54.8,30.35,North,-999,-999.0,-999.0,65,-99.99,,,-99.99,Homeseer,2013-05-19 13:37:00,
2013-05-19 09:42:00,64.1,55.2,30.35,North,-999,-999.0,-999.0,66,-99.99,,,-99.99,Homeseer,2013-05-19 13:42:00,
2013-05-19 09:47:00,63.6,54.7,30.34,North,-999,-999.0,-999.0,66,-99.99,,,-99.99,Homeseer,2013-05-19 13:47:00,
2013-05-19 09:52:00,64.1,54.9,30.34,North,-999,-999.0,-999.0,65,-99.99,,,-99.99,Homeseer,2013-05-19 13:52:00,
2013-05-19 09:57:00,64.7,54.8,30.34,North,-999,-999.0,-999.0,63,-99.99,,,-99.99,Homeseer,2013-05-19 13:57:00,
2013-05-19 10:02:00,64.9,54.7,30.33,North,-999,-999.0,-999.0,62,-99.99,,,-99.99,Homeseer,2013-05-19 14:02:00,
2013-05-19 10:07:00,65.2,55.6,30.33,North,-999,-999.0,-999.0,64,-99.99,,,-99.99,Homeseer,2013-05-19 14:07:00,
2013-05-19 10:12:00,65.9,54.9,30.34,North,-999,-999.0,-999.0,60,-99.99,,,-99.99,Homeseer,2013-05-19 14:12:00,
2013-05-19 10:17:00,66.6,54.9,30.34,North,-999,-999.0,-999.0,58,-99.99,,,-99.99,Homeseer,2013-05-19 14:17:00,
2013-05-19 10:22:00,66.9,55.1,30.34,North,-999,-999.0,-999.0,58,-99.99,,,-99.99,Homeseer,2013-05-19 14:22:00,
2013-05-19 10:27:00,66.5,54.4,30.34,North,-999,-999.0,-999.0,57,-99.99,,,-99.99,Homeseer,2013-05-19 14:27:00,
2013-05-19 10:32:00,66.8,56.1,30.34,North,-999,-999.0,-999.0,61,-99.99,,,-99.99,Homeseer,2013-05-19 14:32:00,
2013-05-19 10:37:00,67.2,55.8,30.33,North,-999,-999.0,-999.0,59,-99.99,,,-99.99,Homeseer,2013-05-19 14:37:00,
2013-05-19 10:42:00,68.3,56.1,30.33,North,-999,-999.0,-999.0,57,-99.99,,,-99.99,Homeseer,2013-05-19 14:42:00,
2013-05-19 10:47:00,69.0,58.1,30.33,North,-999,-999.0,-999.0,61,-99.99,,,-99.99,Homeseer,2013-05-19 14:47:00,
2013-05-19 10:52:00,70.1,57.7,30.33,North,-999,-999.0,-999.0,57,-99.99,,,-99.99,Homeseer,2013-05-19 14:52:00,
2013-05-19 10:57:00,70.3,56.0,30.33,North,-999,-999.0,-999.0,52,-99.99,,,-99.99,Homeseer,2013-05-19 14:57:00,
2013-05-19 11:02:00,69.6,56.1,30.32,North,-999,-999.0,-999.0,54,-99.99,,,-99.99,Homeseer,2013-05-19 15:02:00,
2013-05-19 11:07:00,70.0,58.4,30.32,North,-999,-999.0,-999.0,59,-99.99,,,-99.99,Homeseer,2013-05-19 15:07:00,
2013-05-19 11:12:00,70.8,56.4,30.32,North,-999,-999.0,-999.0,52,-99.99,,,-99.99,Homeseer,2013-05-19 15:12:00,
2013-05-19 11:17:00,71.1,56.7,30.32,North,-999,-999.0,-999.0,52,-99.99,,,-99.99,Homeseer,2013-05-19 15:17:00,
2013-05-19 11:22:00,71.0,57.0,30.32,North,-999,-999.0,-999.0,53,-99.99,,,-99.99,Homeseer,2013-05-19 15:22:00,
2013-05-19 11:27:00,71.6,57.2,30.32,North,-999,-999.0,-999.0,52,-99.99,,,-99.99,Homeseer,2013-05-19 15:27:00,
2013-05-19 11:32:00,72.8,58.3,30.31,North,-999,-999.0,-999.0,52,-99.99,,,-99.99,Homeseer,2013-05-19 15:32:00,
2013-05-19 11:37:00,72.8,57.4,30.31,North,-999,-999.0,-999.0,50,-99.99,,,-99.99,Homeseer,2013-05-19 15:37:00,
2013-05-19 11:42:00,71.0,54.5,30.31,North,-999,-999.0,-999.0,47,-99.99,,,-99.99,Homeseer,2013-05-19 15:42:00,
2013-05-19 11:47:00,69.6,55.7,30.31,North,-999,-999.0,-999.0,53,-99.99,,,-99.99,Homeseer,2013-05-19 15:47:00,
2013-05-19 11:52:00,70.1,56.2,30.30,North,-999,-999.0,-999.0,53,-99.99,,,-99.99,Homeseer,2013-05-19 15:52:00,
2013-05-19 11:57:00,70.4,56.9,30.29,North,-999,-999.0,-999.0,54,-99.99,,,-99.99,Homeseer,2013-05-19 15:57:00,
2013-05-19 12:02:00,70.3,55.6,30.30,North,-999,-999.0,-999.0,51,-99.99,,,-99.99,Homeseer,2013-05-19 16:02:00,
2013-05-19 12:07:00,71.5,56.7,30.29,North,-999,-999.0,-999.0,51,-99.99,,,-99.99,Homeseer,2013-05-19 16:07:00,
2013-05-19 12:12:00,73.0,57.2,30.29,North,-999,-999.0,-999.0,49,-99.99,,,-99.99,Homeseer,2013-05-19 16:12:00,
2013-05-19 12:17:00,73.2,56.5,30.29,North,-999,-999.0,-999.0,47,-99.99,,,-99.99,Homeseer,2013-05-19 16:17:00,
2013-05-19 12:22:00,73.2,56.9,30.28,North,-999,-999.0,-999.0,48,-99.99,,,-99.99,Homeseer,2013-05-19 16:22:00,
2013-05-19 12:27:00,74.1,55.4,30.28,North,-999,-999.0,-999.0,43,-99.99,,,-99.99,Homeseer,2013-05-19 16:27:00,
2013-05-19 12:32:00,72.9,56.2,30.28,North,-999,-999.0,-999.0,47,-99.99,,,-99.99,Homeseer,2013-05-19 16:32:00,
2013-05-19 12:37:00,71.2,54.3,30.27,North,-999,-999.0,-999.0,46,-99.99,,,-99.99,Homeseer,2013-05-19 16:37:00,
2013-05-19 12:42:00,71.1,56.3,30.27,North,-999,-999.0,-999.0,51,-99.99,,,-99.99,Homeseer,2013-05-19 16:42:00,
2013-05-19 12:47:00,72.4,55.8,30.27,North,-999,-999.0,-999.0,47,-99.99,,,-99.99,Homeseer,2013-05-19 16:47:00,
2013-05-19 12:52:00,72.6,56.8,30.27,North,-999,-999.0,-999.0,49,-99.99,,,-99.99,Homeseer,2013-05-19 16:52:00,
2013-05-19 12:57:00,72.1,55.1,30.27,North,-999,-999.0,-999.0,46,-99.99,,,-99.99,Homeseer,2013-05-19 16:57:00,
2013-05-19 13:02:00,71.6,55.9,30.26,North,-999,-999.0,-999.0,49,-99.99,,,-99.99,Homeseer,2013-05-19 17:02:00,
2013-05-19 13:07:00,72.3,55.7,30.26,North,-999,-999.0,-999.0,47,-99.99,,,-99.99,Homeseer,2013-05-19 17:07:00,
2013-05-19 13:12:00,73.2,55.6,30.26,North,-999,-999.0,-999.0,45,-99.99,,,-99.99,Homeseer,2013-05-19 17:12:00,
2013-05-19 13:17:00,73.6,57.7,30.25,North,-999,-999.0,-999.0,49,-99.99,,,-99.99,Homeseer,2013-05-19 17:17:00,
2013-05-19 13:22:00,73.8,55.2,30.25,North,-999,-999.0,-999.0,43,-99.99,,,-99.99,Homeseer,2013-05-19 17:22:00,
2013-05-19 13:27:00,72.6,54.6,30.23,North,-999,-999.0,-999.0,44,-99.99,,,-99.99,Homeseer,2013-05-19 17:27:00,
2013-05-19 13:32:00,72.4,55.8,30.24,North,-999,-999.0,-999.0,47,-99.99,,,-99.99,Homeseer,2013-05-19 17:32:00,
2013-05-19 13:37:00,72.5,55.0,30.23,North,-999,-999.0,-999.0,45,-99.99,,,-99.99,Homeseer,2013-05-19 17:37:00,
2013-05-19 13:42:00,71.8,54.8,30.23,North,-999,-999.0,-999.0,46,-99.99,,,-99.99,Homeseer,2013-05-19 17:42:00,
2013-05-19 13:47:00,70.8,53.9,30.23,North,-999,-999.0,-999.0,46,-99.99,,,-99.99,Homeseer,2013-05-19 17:47:00,
2013-05-19 13:52:00,70.4,54.0,30.23,North,-999,-999.0,-999.0,47,-99.99,,,-99.99,Homeseer,2013-05-19 17:52:00,
2013-05-19 13:57:00,70.0,54.9,30.23,North,-999,-999.0,-999.0,50,-99.99,,,-99.99,Homeseer,2013-05-19 17:57:00,
2013-05-19 14:02:00,70.0,55.7,30.23,North,-999,-999.0,-999.0,52,-99.99,,,-99.99,Homeseer,2013-05-19 18:02:00,
2013-05-19 14:07:00,69.8,55.1,30.23,North,-999,-999.0,-999.0,51,-99.99,,,-99.99,Homeseer,2013-05-19 18:07:00,
2013-05-19 14:12:00,69.5,53.2,30.22,North,-999,-999.0,-999.0,47,-99.99,,,-99.99,Homeseer,2013-05-19 18:12:00,
2013-05-19 14:17:00,69.7,55.8,30.22,North,-999,-999.0,-999.0,53,-99.99,,,-99.99,Homeseer,2013-05-19 18:17:00,
2013-05-19 14:22:00,70.0,55.3,30.22,North,-999,-999.0,-999.0,51,-99.99,,,-99.99,Homeseer,2013-05-19 18:22:00,
2013-05-19 14:27:00,70.3,57.2,30.22,North,-999,-999.0,-999.0,55,-99.99,,,-99.99,Homeseer,2013-05-19 18:27:00,
2013-05-19 14:32:00,70.5,55.4,30.22,North,-999,-999.0,-999.0,50,-99.99,,,-99.99,Homeseer,2013-05-19 18:32:00,
2013-05-19 14:37:00,70.6,55.4,30.22,North,-999,-999.0,-999.0,50,-99.99,,,-99.99,Homeseer,2013-05-19 18:37:00,
2013-05-19 14:42:00,70.6,54.6,30.22,North,-999,-999.0,-999.0,48,-99.99,,,-99.99,Homeseer,2013-05-19 18:42:00,
2013-05-19 14:47:00,70.2,54.2,30.22,North,-999,-999.0,-999.0,48,-99.99,,,-99.99,Homeseer,2013-05-19 18:47:00,
2013-05-19 14:52:00,70.3,54.8,30.21,North,-999,-999.0,-999.0,49,-99.99,,,-99.99,Homeseer,2013-05-19 18:52:00,
2013-05-19 14:57:00,69.8,55.1,30.21,North,-999,-999.0,-999.0,51,-99.99,,,-99.99,Homeseer,2013-05-19 18:57:00,
2013-05-19 15:02:00,69.8,55.5,30.21,North,-999,-999.0,-999.0,52,-99.99,,,-99.99,Homeseer,2013-05-19 19:02:00,
2013-05-19 15:07:00,69.6,55.4,30.21,North,-999,-999.0,-999.0,52,-99.99,,,-99.99,Homeseer,2013-05-19 19:07:00,
2013-05-19 15:12:00,69.0,54.4,30.21,North,-999,-999.0,-999.0,51,-99.99,,,-99.99,Homeseer,2013-05-19 19:12:00,
2013-05-19 15:17:00,68.5,55.1,30.21,North,-999,-999.0,-999.0,54,-99.99,,,-99.99,Homeseer,2013-05-19 19:17:00,
2013-05-19 15:22:00,67.8,54.9,30.21,North,-999,-999.0,-999.0,55,-99.99,,,-99.99,Homeseer,2013-05-19 19:22:00,
2013-05-19 15:27:00,66.9,55.1,30.22,North,-999,-999.0,-999.0,58,-99.99,,,-99.99,Homeseer,2013-05-19 19:27:00,
2013-05-19 15:32:00,65.9,54.6,30.23,North,-999,-999.0,-999.0,59,-99.99,,,-99.99,Homeseer,2013-05-19 19:32:00,
2013-05-19 15:37:00,65.0,54.1,30.23,North,-999,-999.0,-999.0,60,-99.99,,,-99.99,Homeseer,2013-05-19 19:37:00,
2013-05-19 15:42:00,64.1,53.9,30.23,North,-999,-999.0,-999.0,62,-99.99,,,-99.99,Homeseer,2013-05-19 19:42:00,
2013-05-19 15:47:00,63.8,54.0,30.23,North,-999,-999.0,-999.0,63,-99.99,,,-99.99,Homeseer,2013-05-19 19:47:00,
2013-05-19 15:52:00,63.2,53.7,30.23,North,-999,-999.0,-999.0,64,-99.99,,,-99.99,Homeseer,2013-05-19 19:52:00,
2013-05-19 15:57:00,62.8,53.7,30.23,North,-999,-999.0,-999.0,65,-99.99,,,-99.99,Homeseer,2013-05-19 19:57:00,
2013-05-19 16:02:00,62.2,53.4,30.24,North,-999,-999.0,-999.0,66,-99.99,,,-99.99,Homeseer,2013-05-19 20:02:00,
2013-05-19 16:07:00,61.7,52.9,30.23,North,-999,-999.0,-999.0,66,-99.99,,,-99.99,Homeseer,2013-05-19 20:07:00,
2013-05-19 16:12:00,61.5,53.7,30.23,North,-999,-999.0,-999.0,69,-99.99,,,-99.99,Homeseer,2013-05-19 20:12:00,
2013-05-19 16:17:00,61.4,53.6,30.23,North,-999,-999.0,-999.0,69,-99.99,,,-99.99,Homeseer,2013-05-19 20:17:00,
2013-05-19 16:22:00,61.0,53.2,30.23,North,-999,-999.0,-999.0,69,-99.99,,,-99.99,Homeseer,2013-05-19 20:22:00,
2013-05-19 16:27:00,61.2,53.7,30.23,North,-999,-999.0,-999.0,70,-99.99,,,-99.99,Homeseer,2013-05-19 20:27:00,
2013-05-19 16:32:00,61.0,53.2,30.23,North,-999,-999.0,-999.0,69,-99.99,,,-99.99,Homeseer,2013-05-19 20:32:00,
2013-05-19 16:37:00,61.0,53.5,30.23,North,-999,-999.0,-999.0,70,-99.99,,,-99.99,Homeseer,2013-05-19 20:37:00,
2013-05-19 16:42:00,60.7,53.5,30.23,North,-999,-999.0,-999.0,71,-99.99,,,-99.99,Homeseer,2013-05-19 20:42:00,
2013-05-19 16:47:00,60.6,53.4,30.23,North,-999,-999.0,-999.0,71,-99.99,,,-99.99,Homeseer,2013-05-19 20:47:00,
2013-05-19 16:52:00,60.7,53.5,30.23,North,-999,-999.0,-999.0,71,-99.99,,,-99.99,Homeseer,2013-05-19 20:52:00,
2013-05-19 16:57:00,60.5,53.3,30.23,North,-999,-999.0,-999.0,71,-99.99,,,-99.99,Homeseer,2013-05-19 20:57:00,
2013-05-19 17:02:00,60.4,53.2,30.24,North,-999,-999.0,-999.0,71,-99.99,,,-99.99,Homeseer,2013-05-19 21:02:00,
2013-05-19 17:07:00,59.8,52.6,30.24,North,-999,-999.0,-999.0,71,-99.99,,,-99.99,Homeseer,2013-05-19 21:07:00,
2013-05-19 17:12:00,59.9,53.3,30.24,North,-999,-999.0,-999.0,73,-99.99,,,-99.99,Homeseer,2013-05-19 21:12:00,
2013-05-19 17:17:00,59.7,53.1,30.24,North,-999,-999.0,-999.0,73,-99.99,,,-99.99,Homeseer,2013-05-19 21:17:00,
2013-05-19 17:22:00,59.3,53.0,30.24,North,-999,-999.0,-999.0,74,-99.99,,,-99.99,Homeseer,2013-05-19 21:22:00,
2013-05-19 17:27:00,59.3,53.0,30.24,North,-999,-999.0,-999.0,74,-99.99,,,-99.99,Homeseer,2013-05-19 21:27:00,
2013-05-19 17:32:00,59.2,53.5,30.24,North,-999,-999.0,-999.0,76,-99.99,,,-99.99,Homeseer,2013-05-19 21:32:00,
2013-05-19 17:37:00,58.9,53.2,30.25,North,-999,-999.0,-999.0,76,-99.99,,,-99.99,Homeseer,2013-05-19 21:37:00,
2013-05-19 17:42:00,58.8,53.3,30.24,North,-999,-999.0,-999.0,77,-99.99,,,-99.99,Homeseer,2013-05-19 21:42:00,
2013-05-19 17:47:00,58.7,53.2,30.24,North,-999,-999.0,-999.0,77,-99.99,,,-99.99,Homeseer,2013-05-19 21:47:00,
2013-05-19 17:52:00,58.5,53.6,30.24,North,-999,-999.0,-999.0,79,-99.99,,,-99.99,Homeseer,2013-05-19 21:52:00,
2013-05-19 17:57:00,58.2,53.3,30.24,North,-999,-999.0,-999.0,79,-99.99,,,-99.99,Homeseer,2013-05-19 21:57:00,
2013-05-19 18:02:00,57.8,53.9,30.24,North,-999,-999.0,-999.0,83,-99.99,,,-99.99,Homeseer,2013-05-19 22:02:00,
2013-05-19 18:07:00,57.8,53.4,30.24,North,-999,-999.0,-999.0,81,-99.99,,,-99.99,Homeseer,2013-05-19 22:07:00,
2013-05-19 18:12:00,57.6,53.7,30.25,North,-999,-999.0,-999.0,83,-99.99,,,-99.99,Homeseer,2013-05-19 22:12:00,
2013-05-19 18:17:00,57.5,53.6,30.25,North,-999,-999.0,-999.0,83,-99.99,,,-99.99,Homeseer,2013-05-19 22:17:00,
2013-05-19 18:22:00,57.1,54.0,30.24,North,-999,-999.0,-999.0,86,-99.99,,,-99.99,Homeseer,2013-05-19 22:22:00,
2013-05-19 18:27:00,56.9,54.0,30.24,North,-999,-999.0,-999.0,87,-99.99,,,-99.99,Homeseer,2013-05-19 22:27:00,
2013-05-19 18:32:00,56.8,54.1,30.25,North,-999,-999.0,-999.0,88,-99.99,,,-99.99,Homeseer,2013-05-19 22:32:00,
2013-05-19 18:37:00,56.8,53.9,30.24,North,-999,-999.0,-999.0,87,-99.99,,,-99.99,Homeseer,2013-05-19 22:37:00,
2013-05-19 18:42:00,56.7,54.0,30.24,North,-999,-999.0,-999.0,88,-99.99,,,-99.99,Homeseer,2013-05-19 22:42:00,
2013-05-19 18:47:00,56.4,53.5,30.24,North,-999,-999.0,-999.0,87,-99.99,,,-99.99,Homeseer,2013-05-19 22:47:00,
2013-05-19 18:52:00,56.3,54.1,30.23,North,-999,-999.0,-999.0,90,-99.99,,,-99.99,Homeseer,2013-05-19 22:52:00,
2013-05-19 18:57:00,56.3,53.9,30.23,North,-999,-999.0,-999.0,89,-99.99,,,-99.99,Homeseer,2013-05-19 22:57:00,
2013-05-19 19:02:00,56.2,53.6,30.23,North,-999,-999.0,-999.0,88,-99.99,,,-99.99,Homeseer,2013-05-19 23:02:00,
2013-05-19 19:07:00,56.1,53.9,30.23,North,-999,-999.0,-999.0,90,-99.99,,,-99.99,Homeseer,2013-05-19 23:07:00,
2013-05-19 19:12:00,56.0,53.8,30.23,North,-999,-999.0,-999.0,90,-99.99,,,-99.99,Homeseer,2013-05-19 23:12:00,
2013-05-19 19:17:00,55.9,53.7,30.23,North,-999,-999.0,-999.0,90,-99.99,,,-99.99,Homeseer,2013-05-19 23:17:00,
2013-05-19 19:22:00,55.8,53.8,30.23,North,-999,-999.0,-999.0,91,-99.99,,,-99.99,Homeseer,2013-05-19 23:22:00,
2013-05-19 19:27:00,55.8,53.6,30.22,North,-999,-999.0,-999.0,90,-99.99,,,-99.99,Homeseer,2013-05-19 23:27:00,
2013-05-19 19:32:00,55.7,53.5,30.23,North,-999,-999.0,-999.0,90,-99.99,,,-99.99,Homeseer,2013-05-19 23:32:00,
2013-05-19 19:37:00,55.4,53.5,30.23,North,-999,-999.0,-999.0,91,-99.99,,,-99.99,Homeseer,2013-05-19 23:37:00,
2013-05-19 19:42:00,55.3,53.6,30.23,North,-999,-999.0,-999.0,92,-99.99,,,-99.99,Homeseer,2013-05-19 23:42:00,
2013-05-19 19:47:00,55.4,53.5,30.23,North,-999,-999.0,-999.0,91,-99.99,,,-99.99,Homeseer,2013-05-19 23:47:00,
2013-05-19 19:52:00,55.3,53.6,30.23,North,-999,-999.0,-999.0,92,-99.99,,,-99.99,Homeseer,2013-05-19 23:52:00,
2013-05-19 19:57:00,55.3,53.6,30.22,North,-999,-999.0,-999.0,92,-99.99,,,-99.99,Homeseer,2013-05-19 23:57:00,
2013-05-19 20:02:00,55.3,53.6,30.22,North,-999,-999.0,-999.0,92,-99.99,,,-99.99,Homeseer,2013-05-20 00:02:00,
2013-05-19 20:07:00,55.2,53.5,30.23,North,-999,-999.0,-999.0,92,-99.99,,,-99.99,Homeseer,2013-05-20 00:07:00,
2013-05-19 20:12:00,55.1,53.6,30.23,North,-999,-999.0,-999.0,93,-99.99,,,-99.99,Homeseer,2013-05-20 00:12:00,
2013-05-19 20:17:00,55.1,53.6,30.23,North,-999,-999.0,-999.0,93,-99.99,,,-99.99,Homeseer,2013-05-20 00:17:00,
2013-05-19 20:22:00,55.1,53.6,30.23,North,-999,-999.0,-999.0,93,-99.99,,,-99.99,Homeseer,2013-05-20 00:22:00,
2013-05-19 20:27:00,55.1,53.6,30.23,North,-999,-999.0,-999.0,93,-99.99,,,-99.99,Homeseer,2013-05-20 00:27:00,
2013-05-19 20:32:00,55.1,53.6,30.22,North,-999,-999.0,-999.0,93,-99.99,,,-99.99,Homeseer,2013-05-20 00:32:00,
2013-05-19 20:37:00,55.2,53.7,30.22,North,-999,-999.0,-999.0,93,-99.99,,,-99.99,Homeseer,2013-05-20 00:37:00,
2013-05-19 20:42:00,55.2,53.5,30.21,North,-999,-999.0,-999.0,92,-99.99,,,-99.99,Homeseer,2013-05-20 00:42:00,
2013-05-19 20:47:00,55.2,53.7,30.21,North,-999,-999.0,-999.0,93,-99.99,,,-99.99,Homeseer,2013-05-20 00:47:00,
2013-05-19 20:52:00,55.2,53.7,30.21,North,-999,-999.0,-999.0,93,-99.99,,,-99.99,Homeseer,2013-05-20 00:52:00,
2013-05-19 20:57:00,55.2,53.5,30.20,North,-999,-999.0,-999.0,92,-99.99,,,-99.99,Homeseer,2013-05-20 00:57:00,
2013-05-19 21:02:00,55.1,53.8,30.21,North,-999,-999.0,-999.0,94,-99.99,,,-99.99,Homeseer,2013-05-20 01:02:00,
2013-05-19 21:07:00,55.2,53.9,30.21,North,-999,-999.0,-999.0,94,-99.99,,,-99.99,Homeseer,2013-05-20 01:07:00,
2013-05-19 21:12:00,55.2,53.9,30.21,North,-999,-999.0,-999.0,94,-99.99,,,-99.99,Homeseer,2013-05-20 01:12:00,
2013-05-19 21:17:00,55.4,54.1,30.21,North,-999,-999.0,-999.0,94,-99.99,,,-99.99,Homeseer,2013-05-20 01:17:00,
2013-05-19 21:22:00,55.4,54.1,30.21,North,-999,-999.0,-999.0,94,-99.99,,,-99.99,Homeseer,2013-05-20 01:22:00,
2013-05-19 21:27:00,55.4,54.1,30.21,North,-999,-999.0,-999.0,94,-99.99,,,-99.99,Homeseer,2013-05-20 01:27:00,
2013-05-19 21:32:00,55.4,54.3,30.21,North,-999,-999.0,-999.0,95,-99.99,,,-99.99,Homeseer,2013-05-20 01:32:00,
2013-05-19 21:37:00,55.6,54.5,30.21,North,-999,-999.0,-999.0,95,-99.99,,,-99.99,Homeseer,2013-05-20 01:37:00,
2013-05-19 21:42:00,55.6,54.5,30.21,North,-999,-999.0,-999.0,95,-99.99,,,-99.99,Homeseer,2013-05-20 01:42:00,
2013-05-19 21:47:00,55.6,54.5,30.21,North,-999,-999.0,-999.0,95,-99.99,,,-99.99,Homeseer,2013-05-20 01:47:00,
2013-05-19 21:52:00,55.7,54.6,30.21,North,-999,-999.0,-999.0,95,-99.99,,,-99.99,Homeseer,2013-05-20 01:52:00,
2013-05-19 21:57:00,55.7,54.6,30.21,North,-999,-999.0,-999.0,95,-99.99,,,-99.99,Homeseer,2013-05-20 01:57:00,
2013-05-19 22:02:00,55.7,54.6,30.21,North,-999,-999.0,-999.0,95,-99.99,,,-99.99,Homeseer,2013-05-20 02:02:00,
2013-05-19 22:07:00,55.7,54.6,30.20,North,-999,-999.0,-999.0,95,-99.99,,,-99.99,Homeseer,2013-05-20 02:07:00,
2013-05-19 22:12:00,55.7,54.4,30.21,North,-999,-999.0,-999.0,94,-99.99,,,-99.99,Homeseer,2013-05-20 02:12:00,
2013-05-19 22:17:00,55.8,54.7,30.20,North,-999,-999.0,-999.0,95,-99.99,,,-99.99,Homeseer,2013-05-20 02:17:00,
2013-05-19 22:22:00,55.8,54.5,30.19,North,-999,-999.0,-999.0,94,-99.99,,,-99.99,Homeseer,2013-05-20 02:22:00,
2013-05-19 22:27:00,55.9,54.8,30.19,North,-999,-999.0,-999.0,95,-99.99,,,-99.99,Homeseer,2013-05-20 02:27:00,
2013-05-19 22:32:00,55.8,54.7,30.19,North,-999,-999.0,-999.0,95,-99.99,,,-99.99,Homeseer,2013-05-20 02:32:00,
2013-05-19 22:37:00,55.7,54.9,30.19,North,-999,-999.0,-999.0,96,-99.99,,,-99.99,Homeseer,2013-05-20 02:37:00,
2013-05-19 22:42:00,55.8,55.0,30.19,North,-999,-999.0,-999.0,96,-99.99,,,-99.99,Homeseer,2013-05-20 02:42:00,
2013-05-19 22:47:00,55.8,55.0,30.18,North,-999,-999.0,-999.0,96,-99.99,,,-99.99,Homeseer,2013-05-20 02:47:00,
2013-05-19 22:52:00,55.9,55.1,30.18,North,-999,-999.0,-999.0,96,-99.99,,,-99.99,Homeseer,2013-05-20 02:52:00,
2013-05-19 22:57:00,55.9,55.1,30.18,North,-999,-999.0,-999.0,96,-99.99,,,-99.99,Homeseer,2013-05-20 02:57:00,
2013-05-19 23:02:00,55.9,55.1,30.18,North,-999,-999.0,-999.0,96,-99.99,,,-99.99,Homeseer,2013-05-20 03:02:00,
2013-05-19 23:07:00,55.8,54.7,30.17,North,-999,-999.0,-999.0,95,-99.99,,,-99.99,Homeseer,2013-05-20 03:07:00,
2013-05-19 23:12:00,56.0,55.1,30.17,North,-999,-999.0,-999.0,96,-99.99,,,-99.99,Homeseer,2013-05-20 03:12:00,
2013-05-19 23:17:00,56.0,55.1,30.17,North,-999,-999.0,-999.0,96,-99.99,,,-99.99,Homeseer,2013-05-20 03:17:00,
2013-05-19 23:22:00,56.0,55.1,30.17,North,-999,-999.0,-999.0,96,-99.99,,,-99.99,Homeseer,2013-05-20 03:22:00,
2013-05-19 23:27:00,55.8,55.0,30.17,North,-999,-999.0,-999.0,96,-99.99,,,-99.99,Homeseer,2013-05-20 03:27:00,
2013-05-19 23:32:00,56.0,55.1,30.16,North,-999,-999.0,-999.0,96,-99.99,,,-99.99,Homeseer,2013-05-20 03:32:00,
2013-05-19 23:37:00,55.9,55.1,30.17,North,-999,-999.0,-999.0,96,-99.99,,,-99.99,Homeseer,2013-05-20 03:37:00,
2013-05-19 23:42:00,55.9,55.1,30.16,North,-999,-999.0,-999.0,96,-99.99,,,-99.99,Homeseer,2013-05-20 03:42:00,
2013-05-19 23:47:00,56.0,55.4,30.16,North,-999,-999.0,-999.0,97,-99.99,,,-99.99,Homeseer,2013-05-20 03:47:00,
2013-05-19 23:52:00,56.0,55.1,30.15,North,-999,-999.0,-999.0,96,-99.99,,,-99.99,Homeseer,2013-05-20 03:52:00,
2013-05-19 23:57:00,56.0,55.1,30.15,North,-999,-999.0,-999.0,96,-99.99,,,-99.99,Homeseer,2013-05-20 03:57:00,